This is the latest recevied weather packets stored in our database for station/object KG5APU. If no packets are shown the sender has not sent any weather packets the latest 10 day(s).
| Time | Temp. | Humidity | Pressure | Rain* | Wind** | Luminosity | Snow |
|---|---|---|---|---|---|---|---|
| 1777204587 | 22.78° C | 93% | 1009.3 hPa | 0 mm | - | 1 W/m² | - |
| 1777203985 | 22.22° C | 93% | 1008.9 hPa | 0 mm | - | 1 W/m² | - |
| 1777203380 | 22.78° C | 92% | 1008.6 hPa | 0 mm | - | 0 W/m² | - |
| 1777202780 | 22.22° C | 92% | 1008.5 hPa | 0 mm | - | 0 W/m² | - |
| 1777202179 | 22.22° C | 92% | 1008.4 hPa | 0 mm | - | 0 W/m² | - |
| 1777201578 | 22.22° C | 92% | 1008.4 hPa | 0 mm | - | 0 W/m² | - |
| 1777200975 | 21.67° C | 92% | 1008.5 hPa | 0 mm | - | 0 W/m² | - |
| 1777200371 | 21.11° C | 90% | 1008.8 hPa | 0 mm | - | 0 W/m² | - |
| 1777199769 | 20.56° C | 88% | 1008.9 hPa | 0 mm | - | 0 W/m² | - |
| 1777199166 | 20.56° C | 89% | 1008.6 hPa | 0 mm | - | 0 W/m² | - |
| 1777198563 | 20.56° C | 89% | 1008.2 hPa | 0 mm | - | 0 W/m² | - |
| 1777197961 | 21.11° C | 89% | 1007.8 hPa | 0 mm | - | 0 W/m² | - |
| 1777197358 | 21.11° C | 88% | 1007.8 hPa | 0 mm | - | 0 W/m² | - |
| 1777196756 | 21.67° C | 87% | 1007.6 hPa | 0 mm | - | 0 W/m² | - |
| 1777196156 | 21.67° C | 86% | 1007.4 hPa | 0 mm | - | 0 W/m² | - |
| 1777195553 | 22.22° C | 84% | 1007.6 hPa | 0 mm | - | 0 W/m² | - |
| 1777194951 | 22.22° C | 84% | 1007.4 hPa | 0 mm | - | 0 W/m² | - |
| 1777194348 | 22.78° C | 82% | 1007.5 hPa | 0 mm | - | 0 W/m² | - |
| 1777193744 | 22.78° C | 82% | 1007.5 hPa | 0 mm | - | 0 W/m² | - |
| 1777193140 | 22.78° C | 83% | 1007.3 hPa | 0 mm | - | 0 W/m² | - |
| 1777192537 | 22.78° C | 87% | 1007.1 hPa | 0 mm | - | 0 W/m² | - |
| 1777191937 | 23.89° C | 87% | 1007.2 hPa | 0 mm | - | 0 W/m² | - |
| 1777191335 | 24.44° C | 87% | 1007 hPa | 0 mm | - | 0 W/m² | - |
| 1777190735 | 24.44° C | 87% | 1007.1 hPa | 0 mm | - | 0 W/m² | - |
| 1777190134 | 25° C | 86% | 1007 hPa | 0 mm | - | 0 W/m² | - |
* Rain latest hour (hover to see other rain measurements)
** Current wind speed in m/s (hover to see current wind gust speed)